Location: Byszew
(52.1813°N, 19.2693°E)
Time: 21:04:09
(UTC+00:00)

ASTEX 1 - Pass Details

Date: 03 March 2021
Orbit: 720 x 743 km, 92.7° (Epoch: 16 April)

Event Time Altitude Azimuth Distance (km) Brightness Sun altitude
Rises 17:39:48 0° 13° (NNE) 3,154 6.6 -12.1°
Reaches altitude 10° 17:42:26 10° 26° (NNE) 2,225 5.7 -12.5°
Maximum altitude 17:46:35 27° 84° (E) 1,380 4.3 -13.1°
Enters shadow 17:50:41 10° 141° (SE) 2,202 5.5 -13.7°
